This is the latest recevied weather packets stored in our database for station/object KC5AV. If no packets are shown the sender has not sent any weather packets the latest 10 day(s).
| Time | Temp. | Humidity | Pressure | Rain* | Wind** | Luminosity | Snow |
|---|---|---|---|---|---|---|---|
| 1787424445 | 40° C | 36% | 1017.4 hPa | 0 mm | - | 293 W/m² | - |
| 1787424141 | 40° C | 38% | 1017.5 hPa | 0 mm | - | 386 W/m² | - |
| 1787423837 | 40.56° C | 35% | 1017.3 hPa | 0 mm | - | 584 W/m² | - |
| 1787423533 | 40° C | 36% | 1017.4 hPa | 0 mm | - | 727 W/m² | - |
| 1787423228 | 40.56° C | 36% | 1017.5 hPa | 0 mm | - | 639 W/m² | - |
| 1787422924 | 40.56° C | 38% | 1017.3 hPa | 0 mm | - | 672 W/m² | - |
| 1787422620 | 40° C | 38% | 1017.5 hPa | 0 mm | - | 839 W/m² | - |
| 1787422316 | 40° C | 36% | 1017.5 hPa | 0 mm | - | 740 W/m² | - |
| 1787422012 | 40° C | 37% | 1017.8 hPa | 0 mm | - | 823 W/m² | - |
| 1787421708 | 40° C | 37% | 1017.7 hPa | 0 mm | - | 818 W/m² | - |
| 1787421403 | 39.44° C | 39% | 1017.7 hPa | 0 mm | - | 886 W/m² | - |
| 1787421098 | 40° C | 36% | 1017.9 hPa | 0 mm | - | 890 W/m² | - |
| 1787420794 | 39.44° C | 38% | 1018.1 hPa | 0 mm | - | 798 W/m² | - |
| 1787420490 | 38.89° C | 39% | 1018.1 hPa | 0 mm | - | 687 W/m² | - |
| 1787420186 | 38.89° C | 38% | 1018.2 hPa | 0 mm | - | 834 W/m² | - |
| 1787419882 | 39.44° C | 37% | 1018.1 hPa | 0 mm | - | 877 W/m² | - |
| 1787419578 | 39.44° C | 37% | 1018.3 hPa | 0 mm | - | 809 W/m² | - |
| 1787419272 | 39.44° C | 38% | 1018.5 hPa | 0 mm | - | 834 W/m² | - |
| 1787418968 | 38.89° C | 38% | 1018.2 hPa | 0 mm | - | 834 W/m² | - |
| 1787418663 | 38.33° C | 39% | 1018.5 hPa | 0 mm | - | 834 W/m² | - |
| 1787418360 | 38.33° C | 38% | 1018.5 hPa | 0 mm | - | 771 W/m² | - |
| 1787418057 | 38.33° C | 41% | 1018.3 hPa | 0 mm | - | 822 W/m² | - |
| 1787417757 | 38.33° C | 39% | 1018.6 hPa | 0 mm | - | 736 W/m² | - |
| 1787417457 | 37.78° C | 40% | 1018.6 hPa | 0 mm | - | 762 W/m² | - |
| 1787417152 | 38.33° C | 40% | 1018.5 hPa | 0 mm | - | 784 W/m² | - |
* Rain latest hour (hover to see other rain measurements)
** Current wind speed in m/s (hover to see current wind gust speed)